Location: Unspecified
(48.2082°N, 0.0000°E)
Time: 10:28:10
(UTC+00:00)

Transit 4A - Pass Details

Date: 20 June 2019
Orbit: 862 x 982 km, 66.8° (Epoch: 16 July)

Event Time Altitude Azimuth Distance (km) Brightness Sun altitude
Rises 06:57:22 0° 156° (SSE) 3,607 11.2 26.4°
Reaches altitude 10° 07:01:04 10° 134° (SE) 2,689 11.0 27.0°
Maximum altitude 07:04:24 15° 101° (ESE) 2,365 11.7 27.5°
Drops below altitude 10° 07:07:46 10° 69° (ENE) 2,728 11.8 28.1°
Sets 07:11:32 0° 48° (NE) 3,692 11.8 28.7°
